QTR664 OTHH-VCBI

Flight info

Callsign QTR664
Flight time N/A
Altitude 35000
Route BUNDU B415 SIXIV N318 LABRI/N0496F370 N318 GEVED/N0491F390 N318 TOLDA P570 EMURU M300 VASTU P895 BIKOK BIKOK1A
Aircraft A35K/H-SDE2E3GHIJ3J4J5LM1ORWXY/LB1D1

Departure

Time 2026-05-05 01:25
Airport Hamad International Airport (OTHH)

Arrival

Time N/A
Airport Bandaranaike International Colombo Airport (VCBI)
Time Latitude Longitude Altitude Speed Heading
2026-05-05 01:04 25.26115 51.61060 28 ft 0 kts 158°
2026-05-05 01:11 25.26116 51.61059 28 ft 2 kts 158°
2026-05-05 01:11 25.26132 51.61052 28 ft 2 kts 160°
2026-05-05 01:11 25.26147 51.61046 25 ft 2 kts 161°
2026-05-05 01:12 25.26163 51.61040 27 ft 2 kts 163°
2026-05-05 01:12 25.26179 51.61036 26 ft 2 kts 167°
2026-05-05 01:12 25.26196 51.61033 26 ft 2 kts 180°
2026-05-05 01:12 25.26212 51.61036 25 ft 2 kts 219°
2026-05-05 01:13 25.26220 51.61048 25 ft 1 kts 246°
2026-05-05 01:13 25.26220 51.61049 25 ft 0 kts 246°
2026-05-05 01:15 25.26217 51.61041 25 ft 4 kts 246°
2026-05-05 01:15 25.26197 51.60986 28 ft 10 kts 248°
2026-05-05 01:15 25.26167 51.60906 28 ft 12 kts 248°
2026-05-05 01:15 25.26133 51.60812 28 ft 14 kts 248°
2026-05-05 01:16 25.26134 51.60708 28 ft 14 kts 307°
2026-05-05 01:16 25.26170 51.60607 27 ft 14 kts 293°
2026-05-05 01:16 25.26255 51.60547 27 ft 15 kts 338°
2026-05-05 01:16 25.26359 51.60500 27 ft 17 kts 338°
2026-05-05 01:17 25.26434 51.60467 27 ft 18 kts 338°
2026-05-05 01:17 25.26557 51.60413 27 ft 20 kts 338°
2026-05-05 01:17 25.26689 51.60355 27 ft 21 kts 338°
2026-05-05 01:17 25.26870 51.60275 27 ft 19 kts 338°
2026-05-05 01:18 25.26952 51.60259 27 ft 17 kts 21°
2026-05-05 01:18 25.27029 51.60410 28 ft 19 kts 68°
2026-05-05 01:18 25.27063 51.60503 28 ft 20 kts 68°
2026-05-05 01:18 25.27116 51.60649 28 ft 22 kts 68°
2026-05-05 01:19 25.27176 51.60813 28 ft 23 kts 68°
2026-05-05 01:19 25.27237 51.60982 28 ft 24 kts 68°
2026-05-05 01:19 25.27300 51.61156 28 ft 21 kts 68°
2026-05-05 01:19 25.27349 51.61291 28 ft 20 kts 68°
2026-05-05 01:20 25.27399 51.61430 28 ft 15 kts 68°
2026-05-05 01:20 25.27419 51.61532 28 ft 13 kts 114°
2026-05-05 01:20 25.27337 51.61593 28 ft 17 kts 158°
2026-05-05 01:20 25.27214 51.61648 28 ft 20 kts 158°
2026-05-05 01:21 25.27078 51.61708 28 ft 22 kts 158°
2026-05-05 01:21 25.26935 51.61772 28 ft 23 kts 158°
2026-05-05 01:21 25.26783 51.61839 28 ft 24 kts 158°
2026-05-05 01:21 25.26623 51.61910 28 ft 25 kts 158°
2026-05-05 01:22 25.26456 51.61983 28 ft 26 kts 158°
2026-05-05 01:22 25.26285 51.62059 28 ft 27 kts 158°
2026-05-05 01:22 25.26108 51.62136 29 ft 28 kts 158°
2026-05-05 01:22 25.25934 51.62214 28 ft 27 kts 158°
2026-05-05 01:23 25.25758 51.62292 28 ft 28 kts 158°
2026-05-05 01:23 25.25603 51.62360 28 ft 23 kts 158°
2026-05-05 01:23 25.25484 51.62436 28 ft 18 kts 114°
2026-05-05 01:23 25.25514 51.62567 28 ft 18 kts 65°
2026-05-05 01:24 25.25592 51.62667 29 ft 14 kts
2026-05-05 01:24 25.25653 51.62648 29 ft 0 kts 337°
2026-05-05 01:24 25.25683 51.62634 28 ft 19 kts 337°
2026-05-05 01:24 25.26026 51.62484 28 ft 87 kts 339°
2026-05-05 01:25 25.26765 51.62157 28 ft 144 kts 338°
2026-05-05 01:25 25.27829 51.61693 331 ft 167 kts 338°
2026-05-05 01:25 25.28879 51.61230 1091 ft 159 kts 339°
2026-05-05 01:25 25.29936 51.60756 1515 ft 171 kts 341°
2026-05-05 01:26 25.31115 51.60313 1735 ft 188 kts 349°
2026-05-05 01:26 25.32462 51.60400 2020 ft 203 kts 21°
2026-05-05 01:26 25.33527 51.61445 2528 ft 212 kts 58°
2026-05-05 01:26 25.34232 51.62869 3127 ft 215 kts 58°
2026-05-05 01:27 25.34888 51.64403 3744 ft 220 kts 64°
2026-05-05 01:27 25.35431 51.65982 4354 ft 223 kts 64°
2026-05-05 01:27 25.36102 51.67527 4987 ft 224 kts 59°
2026-05-05 01:27 25.36717 51.69128 5625 ft 229 kts 70°
2026-05-05 01:28 25.36848 51.70905 6201 ft 241 kts 92°
2026-05-05 01:28 25.36502 51.72800 6500 ft 262 kts 99°
2026-05-05 01:28 25.36039 51.74833 6805 ft 280 kts 99°
2026-05-05 01:28 25.35574 51.76957 7337 ft 287 kts 99°
2026-05-05 01:29 25.35119 51.79122 7952 ft 292 kts 98°
2026-05-05 01:29 25.34665 51.81339 8605 ft 297 kts 98°
2026-05-05 01:29 25.34211 51.83587 9279 ft 302 kts 98°
2026-05-05 01:29 25.33752 51.85876 9942 ft 307 kts 98°
2026-05-05 01:30 25.33295 51.88195 10421 ft 320 kts 98°
2026-05-05 01:30 25.32807 51.90654 10731 ft 338 kts 99°
2026-05-05 01:30 25.32286 51.93261 11033 ft 355 kts 99°
2026-05-05 01:30 25.31740 51.95989 11331 ft 371 kts 99°
2026-05-05 01:31 25.31170 51.98836 11606 ft 386 kts 100°
2026-05-05 01:31 25.30580 52.01779 11959 ft 396 kts 100°
2026-05-05 01:31 25.29979 52.04773 12477 ft 401 kts 100°
2026-05-05 01:31 25.29322 52.07787 13001 ft 407 kts 105°
2026-05-05 01:32 25.28236 52.10512 13509 ft 412 kts 121°
2026-05-05 01:32 25.26500 52.13143 14057 ft 415 kts 128°
2026-05-05 01:32 25.24685 52.15645 14599 ft 417 kts 129°
2026-05-05 01:32 25.22861 52.18157 15168 ft 419 kts 129°
2026-05-05 01:33 25.21037 52.20682 15723 ft 421 kts 129°
2026-05-05 01:33 25.19211 52.23218 16284 ft 423 kts 129°
2026-05-05 01:33 25.17380 52.25764 16832 ft 425 kts 129°
2026-05-05 01:33 25.15531 52.28337 17386 ft 427 kts 130°
2026-05-05 01:34 25.13677 52.30916 17944 ft 430 kts 130°
2026-05-05 01:34 25.11839 52.33474 18413 ft 432 kts 130°
2026-05-05 01:34 25.09963 52.36084 18875 ft 435 kts 130°
2026-05-05 01:34 25.08075 52.38708 19348 ft 438 kts 130°
2026-05-05 01:35 25.06175 52.41346 19812 ft 441 kts 130°
2026-05-05 01:35 25.04257 52.44008 20281 ft 444 kts 130°
2026-05-05 01:35 25.02333 52.46689 20759 ft 447 kts 129°
2026-05-05 01:35 25.00635 52.49586 21231 ft 453 kts 117°
2026-05-05 01:36 24.99407 52.52799 21717 ft 457 kts 111°
2026-05-05 01:36 24.98355 52.56119 22190 ft 460 kts 109°
2026-05-05 01:36 24.97382 52.59491 22677 ft 463 kts 108°
2026-05-05 01:36 24.96428 52.62893 23154 ft 466 kts 108°
2026-05-05 01:37 24.95462 52.66320 23554 ft 470 kts 108°
2026-05-05 01:37 24.94479 52.69771 23905 ft 474 kts 108°
2026-05-05 01:37 24.93567 52.73286 24264 ft 478 kts 106°
2026-05-05 01:37 24.92732 52.76809 24639 ft 483 kts 105°
2026-05-05 01:38 24.91905 52.80404 25018 ft 487 kts 105°
2026-05-05 01:38 24.91066 52.84032 25403 ft 491 kts 105°
2026-05-05 01:38 24.90207 52.87685 25812 ft 495 kts 106°
2026-05-05 01:38 24.89325 52.91367 26207 ft 499 kts 106°
2026-05-05 01:39 24.88427 52.95073 26615 ft 503 kts 106°
2026-05-05 01:39 24.87515 52.98806 27009 ft 507 kts 107°
2026-05-05 01:39 24.86594 53.02559 27393 ft 511 kts 107°
2026-05-05 01:39 24.85659 53.06363 27794 ft 515 kts 107°
2026-05-05 01:40 24.84721 53.10176 28177 ft 519 kts 107°
2026-05-05 01:40 24.83774 53.14027 28566 ft 523 kts 107°
2026-05-05 01:40 24.82818 53.17908 28941 ft 527 kts 107°
2026-05-05 01:40 24.81851 53.21834 29297 ft 531 kts 107°
2026-05-05 01:41 24.80878 53.25779 29658 ft 535 kts 107°
2026-05-05 01:41 24.79901 53.29735 29972 ft 538 kts 107°
2026-05-05 01:41 24.78917 53.33720 30276 ft 541 kts 107°
2026-05-05 01:41 24.77944 53.37668 30581 ft 543 kts 107°
2026-05-05 01:42 24.76945 53.41697 30894 ft 545 kts 107°
2026-05-05 01:42 24.75944 53.45725 31325 ft 544 kts 107°
2026-05-05 01:42 24.74944 53.49737 31756 ft 543 kts 107°
2026-05-05 01:42 24.73947 53.53739 32149 ft 543 kts 107°
2026-05-05 01:43 24.72945 53.57753 32548 ft 543 kts 107°
2026-05-05 01:43 24.71945 53.61757 32950 ft 542 kts 107°
2026-05-05 01:43 24.70946 53.65752 33333 ft 542 kts 107°
2026-05-05 01:43 24.69948 53.69738 33726 ft 541 kts 107°
2026-05-05 01:44 24.68947 53.73736 34055 ft 541 kts 107°
2026-05-05 01:44 24.67947 53.77720 34376 ft 541 kts 107°
2026-05-05 01:44 24.66949 53.81696 34658 ft 541 kts 107°
2026-05-05 01:44 24.65945 53.85685 34744 ft 543 kts 107°
2026-05-05 01:45 24.63935 53.93660 34745 ft 544 kts 107°
2026-05-05 01:45 24.62025 54.01722 34744 ft 545 kts 105°
2026-05-05 01:46 24.60280 54.09821 34757 ft 545 kts 105°
2026-05-05 01:46 24.58523 54.17920 34745 ft 545 kts 105°
2026-05-05 01:47 24.56727 54.26027 34754 ft 544 kts 105°
2026-05-05 01:47 24.54927 54.34071 34754 ft 544 kts 105°
2026-05-05 01:48 24.53173 54.42156 34748 ft 545 kts 103°
2026-05-05 01:48 24.51857 54.49378 34736 ft 545 kts 102°
2026-05-05 01:49 24.49893 54.57338 34747 ft 542 kts 110°
2026-05-05 01:49 24.47444 54.65165 34742 ft 542 kts 111°
2026-05-05 01:50 24.44906 54.72957 34739 ft 542 kts 111°
2026-05-05 01:50 24.42366 54.80741 34751 ft 541 kts 111°
2026-05-05 01:51 24.39835 54.88527 34752 ft 541 kts 111°
2026-05-05 01:51 24.37306 54.96309 34766 ft 541 kts 111°
2026-05-05 01:52 24.34790 55.04037 34769 ft 541 kts 111°
2026-05-05 01:52 24.31449 55.11348 34774 ft 536 kts 124°
2026-05-05 01:53 24.27457 55.18255 34781 ft 535 kts 126°
2026-05-05 01:53 24.23386 55.25076 34780 ft 535 kts 126°
2026-05-05 01:54 24.19317 55.31903 34791 ft 535 kts 126°
2026-05-05 01:54 24.15948 55.39210 34797 ft 538 kts 116°
2026-05-05 01:55 24.13013 55.46742 34798 ft 538 kts 114°
2026-05-05 01:55 24.10149 55.54260 34801 ft 538 kts 114°
2026-05-05 01:56 24.07263 55.61793 34819 ft 537 kts 115°
2026-05-05 01:56 24.05806 55.65570 35066 ft 535 kts 115°
2026-05-05 01:56 24.04236 55.69270 35464 ft 532 kts 119°
2026-05-05 01:57 24.02531 55.72845 35821 ft 529 kts 121°
2026-05-05 01:57 24.00770 55.76377 36141 ft 529 kts 121°
2026-05-05 01:57 23.99005 55.79896 36461 ft 528 kts 121°
2026-05-05 01:57 23.97250 55.83435 36743 ft 528 kts 121°
2026-05-05 01:58 23.93803 55.90524 36809 ft 531 kts 120°
2026-05-05 01:58 23.90372 55.97691 36815 ft 531 kts 120°
2026-05-05 01:59 23.86979 56.04800 36820 ft 530 kts 120°
2026-05-05 01:59 23.83551 56.11961 36822 ft 530 kts 120°
2026-05-05 02:00 23.80123 56.19092 36827 ft 530 kts 120°
2026-05-05 02:00 23.76685 56.26235 36826 ft 530 kts 120°
2026-05-05 02:01 23.73256 56.33354 36827 ft 529 kts 120°
2026-05-05 02:01 23.69844 56.40428 36833 ft 529 kts 120°
2026-05-05 02:02 23.66407 56.47542 36838 ft 529 kts 120°
2026-05-05 02:02 23.62970 56.54646 36833 ft 529 kts 120°
2026-05-05 02:03 23.59533 56.61741 36840 ft 528 kts 120°
2026-05-05 02:03 23.56100 56.68815 36839 ft 528 kts 120°
2026-05-05 02:04 23.53243 56.74696 36839 ft 528 kts 120°
2026-05-05 02:04 23.49813 56.81745 36845 ft 528 kts 120°
2026-05-05 02:05 23.46375 56.88802 36852 ft 527 kts 120°
2026-05-05 02:05 23.42932 56.95858 36858 ft 527 kts 120°
2026-05-05 02:06 23.39489 57.02906 36852 ft 527 kts 120°
2026-05-05 02:06 23.36067 57.09958 36859 ft 527 kts 118°
2026-05-05 02:07 23.32852 57.17067 36870 ft 527 kts 117°
2026-05-05 02:07 23.29664 57.24233 36872 ft 527 kts 117°
2026-05-05 02:08 23.26435 57.31406 36872 ft 527 kts 118°
2026-05-05 02:08 23.23191 57.38548 36871 ft 526 kts 118°
2026-05-05 02:09 23.19932 57.45695 36868 ft 526 kts 118°
2026-05-05 02:09 23.16675 57.52831 36873 ft 526 kts 118°
2026-05-05 02:10 23.13443 57.59907 36869 ft 526 kts 118°
2026-05-05 02:10 23.10183 57.67035 36860 ft 526 kts 118°
2026-05-05 02:11 23.06918 57.74162 36847 ft 526 kts 118°
2026-05-05 02:11 23.03665 57.81256 36833 ft 525 kts 118°
2026-05-05 02:12 23.02047 57.84780 37005 ft 525 kts 118°
2026-05-05 02:12 22.98799 57.91845 37686 ft 521 kts 118°
2026-05-05 02:12 22.97183 57.95351 37981 ft 521 kts 118°
2026-05-05 02:13 22.95560 57.98870 38254 ft 521 kts 118°
2026-05-05 02:13 22.93935 58.02389 38499 ft 520 kts 118°
2026-05-05 02:13 22.92316 58.05896 38720 ft 519 kts 118°
2026-05-05 02:14 22.89070 58.12919 38814 ft 522 kts 118°
2026-05-05 02:14 22.85812 58.19960 38815 ft 521 kts 118°
2026-05-05 02:15 22.82555 58.26988 38815 ft 521 kts 118°
2026-05-05 02:15 22.79300 58.34004 38817 ft 521 kts 118°
2026-05-05 02:16 22.76048 58.41002 38811 ft 520 kts 117°
2026-05-05 02:16 22.72810 58.47961 38810 ft 520 kts 117°
2026-05-05 02:17 22.69529 58.54960 38811 ft 520 kts 120°
2026-05-05 02:17 22.65209 58.61160 38815 ft 515 kts 139°
2026-05-05 02:18 22.59452 58.65691 38816 ft 511 kts 150°
2026-05-05 02:18 22.53410 58.69667 38817 ft 511 kts 151°
2026-05-05 02:19 22.47309 58.73607 38816 ft 511 kts 151°
2026-05-05 02:19 22.41212 58.77585 38820 ft 510 kts 150°
2026-05-05 02:20 22.35141 58.81572 38818 ft 510 kts 150°
2026-05-05 02:20 22.29105 58.85540 38820 ft 510 kts 150°
2026-05-05 02:21 22.23261 58.89885 38821 ft 512 kts 139°
2026-05-05 02:21 22.18421 58.95534 38822 ft 512 kts 131°
2026-05-05 02:22 22.13882 59.01425 38818 ft 513 kts 130°
2026-05-05 02:22 22.09359 59.07360 38822 ft 512 kts 130°
2026-05-05 02:23 22.04814 59.13273 38816 ft 511 kts 131°
2026-05-05 02:23 22.00266 59.19156 38813 ft 511 kts 131°
2026-05-05 02:24 21.95733 59.25004 38803 ft 510 kts 131°
2026-05-05 02:24 21.91180 59.30873 38806 ft 510 kts 131°
2026-05-05 02:25 21.86628 59.36736 38803 ft 510 kts 131°
2026-05-05 02:25 21.82085 59.42580 38797 ft 509 kts 131°
2026-05-05 02:26 21.77525 59.48442 38795 ft 509 kts 131°
2026-05-05 02:26 21.73015 59.54232 38794 ft 508 kts 131°
2026-05-05 02:27 21.68468 59.60063 38793 ft 508 kts 131°
2026-05-05 02:27 21.63921 59.65888 38792 ft 508 kts 131°
2026-05-05 02:28 21.59368 59.71714 38795 ft 508 kts 131°
2026-05-05 02:28 21.54847 59.77495 38792 ft 507 kts 131°
2026-05-05 02:29 21.50295 59.83297 38794 ft 507 kts 131°
2026-05-05 02:29 21.45724 59.89087 38793 ft 507 kts 131°
2026-05-05 02:30 21.41185 59.94836 38796 ft 507 kts 131°
2026-05-05 02:30 21.36625 60.00611 38796 ft 507 kts 131°
2026-05-05 02:31 21.32052 60.06399 38798 ft 507 kts 131°
2026-05-05 02:31 21.27485 60.12173 38799 ft 507 kts 131°
2026-05-05 02:32 21.22918 60.17943 38797 ft 507 kts 131°
2026-05-05 02:32 21.18361 60.23711 38801 ft 506 kts 131°
2026-05-05 02:33 21.13836 60.29437 38801 ft 506 kts 131°
2026-05-05 02:33 21.09278 60.35196 38808 ft 506 kts 131°
2026-05-05 02:34 21.04723 60.40945 38805 ft 506 kts 131°
2026-05-05 02:34 21.00173 60.46681 38806 ft 505 kts 131°
2026-05-05 02:35 20.95619 60.52417 38810 ft 505 kts 131°
2026-05-05 02:35 20.91086 60.58120 38807 ft 505 kts 131°
2026-05-05 02:36 20.86538 60.63837 38812 ft 505 kts 131°
2026-05-05 02:36 20.81980 60.69559 38813 ft 505 kts 131°
2026-05-05 02:37 20.77416 60.75283 38814 ft 505 kts 131°
2026-05-05 02:37 20.72864 60.80987 38819 ft 505 kts 131°
2026-05-05 02:38 20.68306 60.86692 38818 ft 504 kts 131°
2026-05-05 02:38 20.63770 60.92364 38822 ft 504 kts 131°
2026-05-05 02:39 20.59620 60.98427 38822 ft 505 kts 124°
2026-05-05 02:39 20.55833 61.04700 38824 ft 506 kts 123°
2026-05-05 02:40 20.52066 61.11046 38825 ft 506 kts 123°
2026-05-05 02:40 20.48300 61.17372 38825 ft 505 kts 123°
2026-05-05 02:41 20.44513 61.23706 38825 ft 505 kts 123°
2026-05-05 02:41 20.40728 61.30021 38831 ft 505 kts 123°
2026-05-05 02:42 20.36939 61.36336 38832 ft 505 kts 123°
2026-05-05 02:42 20.33176 61.42601 38830 ft 505 kts 123°
2026-05-05 02:43 20.29382 61.48911 38835 ft 505 kts 123°
2026-05-05 02:43 20.25593 61.55206 38836 ft 505 kts 124°
2026-05-05 02:44 20.21792 61.61514 38835 ft 505 kts 124°
2026-05-05 02:44 20.18024 61.67761 38838 ft 505 kts 124°
2026-05-05 02:45 20.14220 61.74060 38840 ft 505 kts 124°
2026-05-05 02:45 20.10419 61.80348 38840 ft 505 kts 124°
2026-05-05 02:46 20.06616 61.86633 38843 ft 505 kts 124°
2026-05-05 02:46 20.02830 61.92884 38844 ft 505 kts 124°
2026-05-05 02:47 19.99023 61.99160 38848 ft 505 kts 124°
2026-05-05 02:47 19.95218 62.05427 38850 ft 505 kts 124°
2026-05-05 02:48 19.91399 62.11712 38851 ft 505 kts 124°
2026-05-05 02:48 19.87587 62.17979 38851 ft 505 kts 124°
2026-05-05 02:49 19.83795 62.24206 38850 ft 505 kts 124°
2026-05-05 02:49 19.79975 62.30470 38857 ft 505 kts 124°
2026-05-05 02:50 19.76159 62.36723 38857 ft 505 kts 124°
2026-05-05 02:50 19.72342 62.42973 38858 ft 505 kts 124°
2026-05-05 02:51 19.68509 62.49240 38861 ft 505 kts 124°
2026-05-05 02:51 19.64704 62.55453 38858 ft 505 kts 124°
2026-05-05 02:52 19.60872 62.61706 38858 ft 504 kts 124°
2026-05-05 02:52 19.57055 62.67928 38862 ft 504 kts 124°
2026-05-05 02:53 19.53872 62.73112 38864 ft 504 kts 124°
2026-05-05 02:53 19.50037 62.79351 38859 ft 504 kts 124°
2026-05-05 02:54 19.46200 62.85589 38863 ft 504 kts 124°
2026-05-05 02:54 19.42386 62.91780 38862 ft 504 kts 124°
2026-05-05 02:55 19.38545 62.98013 38870 ft 505 kts 124°
2026-05-05 02:55 19.34702 63.04240 38868 ft 505 kts 124°
2026-05-05 02:56 19.30854 63.10466 38871 ft 505 kts 124°
2026-05-05 02:56 19.27008 63.16687 38869 ft 505 kts 124°
2026-05-05 02:57 19.23175 63.22877 38870 ft 505 kts 124°
2026-05-05 02:57 19.19323 63.29093 38875 ft 505 kts 124°
2026-05-05 02:58 19.15471 63.35302 38871 ft 505 kts 124°
2026-05-05 02:58 19.11642 63.41469 38881 ft 505 kts 124°
2026-05-05 02:59 19.07781 63.47681 38873 ft 505 kts 124°
2026-05-05 02:59 19.03920 63.53888 38869 ft 505 kts 124°
2026-05-05 03:00 19.00074 63.60063 38889 ft 505 kts 124°
2026-05-05 03:00 18.96212 63.66265 38877 ft 505 kts 124°
2026-05-05 03:01 18.92332 63.72485 38874 ft 505 kts 124°
2026-05-05 03:01 18.88492 63.78635 38882 ft 505 kts 124°
2026-05-05 03:02 18.84606 63.84852 38873 ft 505 kts 124°
2026-05-05 03:02 18.80739 63.91034 38883 ft 505 kts 124°
2026-05-05 03:03 18.76883 63.97193 38879 ft 504 kts 124°
2026-05-05 03:03 18.73014 64.03365 38872 ft 504 kts 124°
2026-05-05 03:04 18.69137 64.09545 38882 ft 504 kts 124°
2026-05-05 03:04 18.65265 64.15711 38883 ft 504 kts 124°
2026-05-05 03:05 18.61403 64.21855 38866 ft 504 kts 124°
2026-05-05 03:05 18.57525 64.28018 38876 ft 504 kts 124°
2026-05-05 03:06 18.53636 64.34193 38881 ft 504 kts 124°
2026-05-05 03:06 18.49775 64.40317 38886 ft 504 kts 124°
2026-05-05 03:07 18.45889 64.46475 38884 ft 504 kts 124°
2026-05-05 03:07 18.42005 64.52625 38879 ft 504 kts 124°
2026-05-05 03:08 18.38121 64.58767 38880 ft 504 kts 124°
2026-05-05 03:08 18.34227 64.64920 38877 ft 504 kts 124°
2026-05-05 03:09 18.30343 64.71052 38883 ft 504 kts 124°
2026-05-05 03:09 18.26467 64.77165 38885 ft 504 kts 124°
2026-05-05 03:10 18.22582 64.83286 38882 ft 503 kts 124°
2026-05-05 03:10 18.18696 64.89404 38879 ft 503 kts 124°
2026-05-05 03:11 18.14795 64.95539 38886 ft 503 kts 124°
2026-05-05 03:11 18.10904 65.01653 38885 ft 503 kts 124°
2026-05-05 03:12 18.07002 65.07777 38874 ft 503 kts 124°
2026-05-05 03:12 18.03106 65.13887 38885 ft 503 kts 124°
2026-05-05 03:13 17.99208 65.19994 38874 ft 503 kts 124°
2026-05-05 03:13 17.95332 65.26061 38885 ft 503 kts 124°
2026-05-05 03:14 17.91427 65.32168 38881 ft 503 kts 124°
2026-05-05 03:14 17.87519 65.38274 38887 ft 503 kts 124°
2026-05-05 03:15 17.83636 65.44335 38880 ft 503 kts 124°
2026-05-05 03:15 17.79729 65.50429 38882 ft 503 kts 124°
2026-05-05 03:16 17.75821 65.56517 38886 ft 503 kts 124°
2026-05-05 03:16 17.71910 65.62607 38881 ft 502 kts 124°
2026-05-05 03:17 17.67997 65.68692 38883 ft 502 kts 125°
2026-05-05 03:17 17.64117 65.74720 38884 ft 502 kts 125°
2026-05-05 03:18 17.60218 65.80799 38885 ft 502 kts 124°
2026-05-05 03:18 17.56417 65.86963 38886 ft 502 kts 123°
2026-05-05 03:19 17.50760 65.96213 38885 ft 502 kts 123°
2026-05-05 03:19 17.46971 66.02361 38885 ft 502 kts 123°
2026-05-05 03:20 17.43195 66.08466 38886 ft 502 kts 123°
2026-05-05 03:20 17.39390 66.14612 38885 ft 502 kts 123°
2026-05-05 03:21 17.35596 66.20738 38890 ft 502 kts 123°
2026-05-05 03:21 17.31790 66.26877 38887 ft 502 kts 123°
2026-05-05 03:22 17.28004 66.32978 38886 ft 502 kts 123°
2026-05-05 03:22 17.24195 66.39113 38889 ft 502 kts 123°
2026-05-05 03:23 17.20380 66.45249 38886 ft 502 kts 123°
2026-05-05 03:23 17.16595 66.51333 38885 ft 502 kts 123°
2026-05-05 03:24 17.12783 66.57456 38883 ft 501 kts 123°
2026-05-05 03:24 17.08978 66.63562 38887 ft 501 kts 123°
2026-05-05 03:25 17.05156 66.69689 38883 ft 501 kts 123°
2026-05-05 03:25 17.01353 66.75781 38887 ft 501 kts 123°
2026-05-05 03:26 16.97563 66.81845 38883 ft 501 kts 123°
2026-05-05 03:26 16.93752 66.87936 38881 ft 500 kts 123°
2026-05-05 03:27 16.89943 66.94021 38883 ft 500 kts 123°
2026-05-05 03:27 16.86134 67.00099 38884 ft 500 kts 123°
2026-05-05 03:28 16.82325 67.06172 38884 ft 499 kts 123°
2026-05-05 03:28 16.78513 67.12247 38884 ft 499 kts 123°
2026-05-05 03:29 16.74710 67.18301 38880 ft 499 kts 123°
2026-05-05 03:29 16.70919 67.24331 38882 ft 499 kts 123°
2026-05-05 03:30 16.67112 67.30379 38884 ft 498 kts 123°
2026-05-05 03:30 16.63307 67.36420 38884 ft 498 kts 123°
2026-05-05 03:31 16.59516 67.42434 38888 ft 498 kts 123°
2026-05-05 03:31 16.55711 67.48466 38887 ft 498 kts 123°
2026-05-05 03:32 16.51902 67.54499 38884 ft 497 kts 123°
2026-05-05 03:32 16.48099 67.60516 38884 ft 497 kts 123°
2026-05-05 03:33 16.44311 67.66504 38890 ft 497 kts 123°
2026-05-05 03:33 16.40509 67.72510 38885 ft 497 kts 123°
2026-05-05 03:34 16.36706 67.78513 38887 ft 497 kts 123°
2026-05-05 03:34 16.32891 67.84529 38891 ft 496 kts 123°
2026-05-05 03:35 16.29107 67.90492 38889 ft 496 kts 123°
2026-05-05 03:35 16.25306 67.96486 38885 ft 496 kts 123°
2026-05-05 03:36 16.21524 68.02501 38891 ft 495 kts 123°
2026-05-05 03:36 16.17754 68.08503 38892 ft 495 kts 123°
2026-05-05 03:37 16.14005 68.14460 38892 ft 495 kts 123°
2026-05-05 03:37 16.10221 68.20465 38889 ft 495 kts 123°
2026-05-05 03:38 16.06437 68.26462 38886 ft 495 kts 123°
2026-05-05 03:38 16.02681 68.32411 38890 ft 495 kts 123°
2026-05-05 03:39 15.98883 68.38421 38888 ft 495 kts 123°
2026-05-05 03:39 15.95106 68.44395 38889 ft 494 kts 123°
2026-05-05 03:40 15.91347 68.50334 38894 ft 494 kts 123°
2026-05-05 03:40 15.87574 68.56291 38895 ft 494 kts 123°
2026-05-05 03:41 15.83788 68.62263 38892 ft 494 kts 123°
2026-05-05 03:41 15.80643 68.67221 38892 ft 494 kts 123°
2026-05-05 03:42 15.76222 68.74184 38894 ft 494 kts 123°
2026-05-05 03:42 15.73072 68.79142 38895 ft 494 kts 123°
2026-05-05 03:43 15.69293 68.85085 38897 ft 493 kts 123°
2026-05-05 03:43 15.65513 68.91024 38894 ft 493 kts 123°
2026-05-05 03:44 15.61753 68.96929 38893 ft 493 kts 123°
2026-05-05 03:44 15.57967 69.02867 38898 ft 493 kts 123°
2026-05-05 03:45 15.54176 69.08811 38894 ft 493 kts 123°
2026-05-05 03:45 15.50392 69.14739 38897 ft 493 kts 123°
2026-05-05 03:46 15.46631 69.20625 38901 ft 492 kts 123°
2026-05-05 03:46 15.42845 69.26547 38901 ft 493 kts 123°
2026-05-05 03:47 15.39058 69.32466 38897 ft 493 kts 123°
2026-05-05 03:47 15.35268 69.38384 38894 ft 493 kts 123°
2026-05-05 03:48 15.31474 69.44303 38900 ft 493 kts 123°
2026-05-05 03:48 15.27681 69.50218 38904 ft 493 kts 123°
2026-05-05 03:49 15.23883 69.56136 38898 ft 493 kts 123°
2026-05-05 03:49 15.20087 69.62045 38903 ft 493 kts 123°
2026-05-05 03:50 15.16286 69.67957 38902 ft 493 kts 123°
2026-05-05 03:50 15.12505 69.73836 38902 ft 493 kts 123°
2026-05-05 03:51 15.08718 69.79757 38897 ft 493 kts 123°
2026-05-05 03:51 15.04959 69.85696 38903 ft 493 kts 123°
2026-05-05 03:52 15.01206 69.91623 38904 ft 493 kts 123°
2026-05-05 03:52 14.97460 69.97523 38906 ft 493 kts 123°
2026-05-05 03:53 14.93678 70.03471 38907 ft 494 kts 123°
2026-05-05 03:53 14.89921 70.09374 38905 ft 494 kts 123°
2026-05-05 03:54 14.86141 70.15309 38911 ft 494 kts 123°
2026-05-05 03:54 14.82357 70.21246 38910 ft 494 kts 123°
2026-05-05 03:55 14.78567 70.27189 38907 ft 495 kts 123°
2026-05-05 03:55 14.74801 70.33088 38908 ft 495 kts 123°
2026-05-05 03:56 14.71012 70.39020 38911 ft 495 kts 123°
2026-05-05 03:56 14.67212 70.44965 38909 ft 495 kts 123°
2026-05-05 03:57 14.63410 70.50907 38909 ft 495 kts 123°
2026-05-05 03:57 14.59611 70.56841 38914 ft 495 kts 123°
2026-05-05 03:58 14.55814 70.62769 38911 ft 495 kts 123°
2026-05-05 03:58 14.52037 70.68659 38910 ft 495 kts 123°
2026-05-05 03:59 14.48223 70.74605 38914 ft 496 kts 123°
2026-05-05 03:59 14.44412 70.80539 38911 ft 496 kts 123°
2026-05-05 04:00 14.40603 70.86468 38914 ft 496 kts 123°
2026-05-05 04:00 14.36793 70.92394 38908 ft 496 kts 123°
2026-05-05 04:01 14.32996 70.98322 38904 ft 496 kts 123°
2026-05-05 04:01 14.29241 71.04277 38909 ft 496 kts 123°
2026-05-05 04:02 14.25484 71.10242 38912 ft 496 kts 123°
2026-05-05 04:02 14.21720 71.16201 38911 ft 495 kts 123°
2026-05-05 04:03 14.17953 71.22153 38910 ft 496 kts 123°
2026-05-05 04:03 14.14211 71.28061 38911 ft 496 kts 123°
2026-05-05 04:04 14.10436 71.34016 38909 ft 495 kts 123°
2026-05-05 04:04 14.06667 71.39958 38911 ft 495 kts 123°
2026-05-05 04:05 14.02894 71.45902 38907 ft 495 kts 123°
2026-05-05 04:05 13.99119 71.51845 38902 ft 495 kts 123°
2026-05-05 04:06 13.95347 71.57778 38903 ft 495 kts 123°
2026-05-05 04:06 13.91598 71.63672 38904 ft 495 kts 123°
2026-05-05 04:07 13.87819 71.69609 38907 ft 494 kts 123°
2026-05-05 04:07 13.84046 71.75532 38905 ft 494 kts 123°
2026-05-05 04:08 13.80274 71.81450 38905 ft 494 kts 123°
2026-05-05 04:08 13.76523 71.87331 38904 ft 494 kts 123°
2026-05-05 04:09 13.72750 71.93241 38905 ft 494 kts 123°
2026-05-05 04:09 13.68955 71.99138 38902 ft 494 kts 126°
2026-05-05 04:10 13.64719 72.04708 38908 ft 493 kts 129°
2026-05-05 04:10 13.60424 72.10157 38905 ft 493 kts 129°
2026-05-05 04:11 13.56099 72.15612 38898 ft 493 kts 129°
2026-05-05 04:11 13.51768 72.21078 38902 ft 493 kts 129°
2026-05-05 04:12 13.47433 72.26553 38900 ft 493 kts 130°
2026-05-05 04:12 13.43103 72.32021 38898 ft 493 kts 129°
2026-05-05 04:13 13.38802 72.37449 38900 ft 493 kts 129°
2026-05-05 04:13 13.34467 72.42916 38895 ft 493 kts 130°
2026-05-05 04:14 13.30131 72.48382 38898 ft 493 kts 130°
2026-05-05 04:14 13.25788 72.53853 38899 ft 493 kts 130°
2026-05-05 04:15 13.21478 72.59279 38901 ft 493 kts 130°
2026-05-05 04:15 13.17142 72.64734 38900 ft 494 kts 130°
2026-05-05 04:16 13.12793 72.70201 38897 ft 494 kts 130°
2026-05-05 04:16 13.08438 72.75672 38896 ft 494 kts 130°
2026-05-05 04:17 13.04090 72.81132 38901 ft 494 kts 130°
2026-05-05 04:17 12.99756 72.86571 38898 ft 494 kts 130°
2026-05-05 04:18 12.95400 72.92036 38899 ft 495 kts 130°
2026-05-05 04:18 12.91044 72.97495 38903 ft 495 kts 130°
2026-05-05 04:19 12.86700 73.02936 38900 ft 495 kts 130°
2026-05-05 04:19 12.82334 73.08399 38902 ft 495 kts 130°
2026-05-05 04:20 12.77973 73.13854 38897 ft 495 kts 130°
2026-05-05 04:20 12.73597 73.19326 38896 ft 496 kts 130°
2026-05-05 04:21 12.69222 73.24794 38899 ft 496 kts 130°
2026-05-05 04:21 12.64873 73.30227 38901 ft 496 kts 130°
2026-05-05 04:22 12.60501 73.35684 38902 ft 496 kts 130°
2026-05-05 04:22 12.56125 73.41143 38900 ft 495 kts 130°
2026-05-05 04:23 12.51742 73.46608 38901 ft 495 kts 130°
2026-05-05 04:23 12.47364 73.52061 38902 ft 495 kts 130°
2026-05-05 04:24 12.43018 73.57473 38898 ft 495 kts 130°
2026-05-05 04:25 12.36461 73.65632 38896 ft 495 kts 130°
2026-05-05 04:25 12.32087 73.71071 38898 ft 495 kts 130°
2026-05-05 04:26 12.27710 73.76510 38896 ft 494 kts 130°
2026-05-05 04:26 12.23346 73.81930 38899 ft 494 kts 130°
2026-05-05 04:27 12.18964 73.87368 38898 ft 494 kts 130°
2026-05-05 04:27 12.14624 73.92751 38898 ft 493 kts 130°
2026-05-05 04:28 12.10260 73.98162 38899 ft 493 kts 130°
2026-05-05 04:28 12.05899 74.03566 38895 ft 493 kts 130°
2026-05-05 04:29 12.01520 74.08989 38898 ft 493 kts 130°
2026-05-05 04:29 11.97890 74.13482 38898 ft 493 kts 130°
2026-05-05 04:30 11.93516 74.18894 38896 ft 493 kts 130°
2026-05-05 04:30 11.89149 74.24293 38895 ft 493 kts 130°
2026-05-05 04:31 11.84781 74.29691 38897 ft 493 kts 130°
2026-05-05 04:31 11.80404 74.35097 38896 ft 493 kts 130°
2026-05-05 04:32 11.76059 74.40461 38897 ft 493 kts 130°
2026-05-05 04:32 11.71680 74.45863 38897 ft 492 kts 130°
2026-05-05 04:33 11.67315 74.51244 38898 ft 492 kts 130°
2026-05-05 04:33 11.62962 74.56609 38897 ft 492 kts 130°
2026-05-05 04:34 11.58596 74.61987 38897 ft 492 kts 130°
2026-05-05 04:34 11.54223 74.67370 38896 ft 492 kts 130°
2026-05-05 04:35 11.49853 74.72746 38896 ft 492 kts 130°
2026-05-05 04:35 11.45477 74.78127 38895 ft 492 kts 130°
2026-05-05 04:36 11.41136 74.83464 38894 ft 491 kts 130°
2026-05-05 04:36 11.36767 74.88831 38894 ft 490 kts 130°
2026-05-05 04:37 11.32437 74.94150 38895 ft 490 kts 130°
2026-05-05 04:37 11.28081 74.99493 38896 ft 490 kts 130°
2026-05-05 04:38 11.23724 75.04835 38894 ft 489 kts 130°
2026-05-05 04:38 11.19405 75.10124 38895 ft 488 kts 129°
2026-05-05 04:39 11.15044 75.15469 38898 ft 486 kts 129°
2026-05-05 04:39 11.10726 75.20759 38896 ft 485 kts 129°
2026-05-05 04:40 11.06415 75.26036 38895 ft 486 kts 129°
2026-05-05 04:40 11.02113 75.31299 38894 ft 486 kts 129°
2026-05-05 04:41 10.97794 75.36580 38895 ft 486 kts 129°
2026-05-05 04:41 10.93465 75.41871 38889 ft 486 kts 129°
2026-05-05 04:42 10.89138 75.47156 38894 ft 485 kts 129°
2026-05-05 04:42 10.84840 75.52403 38891 ft 485 kts 130°
2026-05-05 04:43 10.80520 75.57674 38891 ft 485 kts 130°
2026-05-05 04:43 10.76168 75.62982 38894 ft 485 kts 130°
2026-05-05 04:44 10.71878 75.68212 38894 ft 485 kts 130°
2026-05-05 04:44 10.67541 75.73497 38893 ft 485 kts 130°
2026-05-05 04:45 10.63198 75.78785 38895 ft 486 kts 130°
2026-05-05 04:45 10.58292 75.84757 38898 ft 487 kts 130°
2026-05-05 04:46 10.52186 75.92184 38899 ft 487 kts 130°
2026-05-05 04:46 10.47843 75.97464 38899 ft 487 kts 130°
2026-05-05 04:47 10.43475 76.02770 38901 ft 487 kts 130°
2026-05-05 04:47 10.39129 76.08048 38900 ft 487 kts 129°
2026-05-05 04:48 10.34774 76.13336 38899 ft 487 kts 129°
2026-05-05 04:48 10.30429 76.18608 38905 ft 487 kts 129°
2026-05-05 04:49 10.26066 76.23900 38908 ft 488 kts 129°
2026-05-05 04:49 10.21742 76.29142 38910 ft 487 kts 129°
2026-05-05 04:50 10.17384 76.34423 38913 ft 487 kts 129°
2026-05-05 04:50 10.13016 76.39711 38912 ft 488 kts 129°
2026-05-05 04:51 10.08642 76.44976 38909 ft 487 kts 130°
2026-05-05 04:51 10.04289 76.50206 38913 ft 487 kts 130°
2026-05-05 04:52 9.99915 76.55463 38911 ft 487 kts 130°
2026-05-05 04:52 9.95545 76.60716 38915 ft 487 kts 130°
2026-05-05 04:53 9.91314 76.65826 38951 ft 486 kts 129°